| time (UTC) | temp F | wind direction | speed MPH | gust MPH | rain 1hr in | rain 24hr in | rain mn in | humidity % | barometer mb |
| 20260504081834 | 64 | 270 | 4.0 | 9.0 | 0.00 | 0.44 | 0.00 | 44 | 1014.4 |
| 20260504080834 | 64 | 315 | 1.0 | 7.0 | 0.00 | 0.57 | 0.00 | 46 | 1014.5 |
| 20260504045843 | 69 | 315 | 4.0 | 11.0 | 0.00 | 1.80 | 0.00 | 42 | 1013.9 |
| 20260504044844 | 68 | 315 | 5.0 | 12.0 | 0.00 | 1.84 | 0.00 | 42 | 1013.9 |
| 20260504043844 | 69 | 315 | 4.0 | 8.0 | 0.00 | 1.91 | 0.00 | 44 | 1014.0 |
| 20260504042844 | 69 | 270 | 4.0 | 9.0 | 0.00 | 1.94 | 0.00 | 42 | 1014.0 |
| 20260504041845 | 69 | 270 | 3.0 | 11.0 | 0.00 | 1.98 | 0.00 | 44 | 1014.0 |
| 20260504040845 | 69 | 338 | 3.0 | 12.0 | 0.00 | 1.99 | 0.00 | 42 | 1014.0 |
| 20260504035846 | 69 | 293 | 6.0 | 14.0 | 0.00 | 2.00 | 0.00 | 40 | 1014.0 |
| 20260504034846 | 70 | 293 | 4.0 | 15.0 | 0.00 | 2.00 | 0.00 | 40 | 1013.8 |
| 20260504033846 | 70 | 270 | 3.0 | 11.0 | 0.00 | 2.04 | 0.00 | 46 | 1013.7 |
| 20260504032847 | 72 | 315 | 6.0 | 11.0 | 0.00 | 2.06 | 0.00 | 43 | 1013.7 |
| 20260504031847 | 72 | 0 | 3.0 | 10.0 | 0.00 | 2.06 | 0.00 | 46 | 1013.7 |
| 20260504030847 | 73 | 225 | 3.0 | 8.0 | 0.00 | 2.06 | 0.00 | 48 | 1013.3 |
| 20260504025847 | 74 | 315 | 1.0 | 5.0 | 0.00 | 2.06 | 0.00 | 49 | 1013.4 |
| 20260504024847 | 74 | 270 | 3.0 | 8.0 | 0.00 | 2.07 | 0.00 | 44 | 1013.4 |
| 20260504023847 | 75 | 180 | 2.0 | 5.0 | 0.00 | 2.07 | 0.00 | 53 | 1013.4 |
| 20260504022847 | 73 | 90 | 3.0 | 8.0 | 0.00 | 2.07 | 0.00 | 51 | 1013.4 |
| 20260504021847 | 73 | 45 | 2.0 | 11.0 | 0.00 | 2.07 | 0.00 | 51 | 1013.4 |
| 20260504020847 | 73 | 270 | 2.0 | 8.0 | 0.00 | 2.07 | 0.00 | 53 | 1013.4 |
| 20260504015847 | 73 | 270 | 1.0 | 5.0 | 0.00 | 2.07 | 0.00 | 53 | 1013.4 |
| 20260504014847 | 75 | 225 | 2.0 | 7.0 | 0.00 | 2.07 | 0.00 | 52 | 1013.7 |
| 20260504013847 | 73 | 270 | 1.0 | 6.0 | 0.00 | 2.07 | 0.00 | 54 | 1013.6 |
| 20260504012847 | 72 | 225 | 2.0 | 8.0 | 0.00 | 2.07 | 0.00 | 57 | 1013.6 |
| 20260504011847 | 72 | 180 | 2.0 | 8.0 | 0.00 | 2.07 | 0.00 | 55 | 1013.6 |
| 20260504010848 | 73 | 225 | 4.0 | 10.0 | 0.00 | 2.07 | 0.00 | 53 | 1013.6 |
| 20260504005848 | 73 | 180 | 2.0 | 11.0 | 0.00 | 2.09 | 0.00 | 55 | 1013.5 |
| 20260504004848 | 72 | 180 | 4.0 | 12.0 | 0.00 | 2.09 | 0.00 | 53 | 1013.4 |
| 20260504003849 | 71 | 270 | 2.0 | 5.0 | 0.00 | 2.09 | 0.00 | 55 | 1013.4 |
| 20260504002849 | 69 | 135 | 1.0 | 12.0 | 0.00 | 2.09 | 0.00 | 56 | 1013.3 |
| 20260504001849 | 71 | 90 | 2.0 | 8.0 | 0.00 | 2.10 | 0.00 | 57 | 1013.0 |
| 20260504000850 | 69 | 180 | 2.0 | 8.0 | 0.00 | 2.10 | 0.00 | 62 | 1013.3 |
| 20260503235850 | 68 | 270 | 2.0 | 7.0 | 0.00 | 2.10 | 0.00 | 63 | 1013.2 |
| 20260503234850 | 69 | 315 | 2.0 | 10.0 | 0.00 | 2.11 | 0.00 | 61 | 1012.9 |
| 20260503233850 | 66 | 225 | 0.0 | 8.0 | 0.00 | 2.12 | 0.00 | 67 | 1012.8 |
| 20260503232851 | 67 | 270 | 2.0 | 9.0 | 0.00 | 2.13 | 0.00 | 65 | 1012.4 |
| 20260503231851 | 69 | 270 | 2.0 | 8.0 | 0.00 | 2.14 | 0.00 | 65 | 1012.2 |
| 20260503230851 | 68 | 270 | 1.0 | 5.0 | 0.00 | 2.16 | 0.00 | 65 | 1011.9 |
| 20260503225851 | 69 | 135 | 1.0 | 3.0 | 0.00 | 2.16 | 0.00 | 68 | 1011.9 |
| 20260503224851 | 66 | 270 | 2.0 | 7.0 | 0.00 | 2.16 | 0.00 | 66 | 1011.8 |
| 20260503223852 | 66 | 270 | 1.0 | 5.0 | 0.00 | 2.16 | 0.00 | 71 | 1011.7 |
| 20260503222852 | 66 | 90 | 2.0 | 6.0 | 0.00 | 2.16 | 0.00 | 71 | 1011.6 |
| 20260503221853 | 66 | 180 | 2.0 | 6.0 | 0.00 | 2.16 | 0.00 | 72 | 1011.2 |
| 20260503220853 | 66 | 315 | 0.0 | 5.0 | 0.00 | 2.16 | 0.00 | 73 | 1011.1 |
| 20260503215853 | 65 | 135 | 2.0 | 5.0 | 0.00 | 2.16 | 0.00 | 75 | 1010.8 |
| 20260503214854 | 63 | 225 | 2.0 | 5.0 | 0.00 | 2.16 | 0.00 | 78 | 1010.7 |
| 20260503213855 | 61 | 315 | 0.0 | 2.0 | 0.00 | 2.16 | 0.00 | 83 | 1010.6 |
| 20260503212855 | 60 | 203 | 0.0 | 2.0 | 0.00 | 2.16 | 0.00 | 83 | 1010.6 |
| 20260503211856 | 61 | 45 | 1.0 | 3.0 | 0.00 | 2.16 | 0.00 | 83 | 1010.3 |
| 20260503210857 | 59 | 0 | 1.0 | 5.0 | 0.00 | 2.16 | 0.00 | 86 | 1010.0 |
| 20260503205858 | 58 | 225 | 2.0 | 7.0 | 0.00 | 2.16 | 0.00 | 86 | 1009.6 |
| 20260503204859 | 58 | 315 | 1.0 | 5.0 | 0.00 | 2.16 | 0.00 | 86 | 1009.8 |
| 20260503203859 | 59 | 270 | 0.0 | 3.0 | 0.00 | 2.16 | 0.00 | 86 | 1009.9 |
| 20260503202900 | 59 | 180 | 0.0 | 2.0 | 0.00 | 2.16 | 0.00 | 86 | 1009.7 |
| 20260503201901 | 59 | 135 | 0.0 | 2.0 | 0.00 | 2.16 | 0.00 | 85 | 1009.6 |
| 20260503200901 | 60 | 225 | 0.0 | 2.0 | 0.00 | 2.16 | 0.00 | 86 | 1009.6 |
| 20260503195902 | 59 | 180 | 1.0 | 5.0 | 0.00 | 2.16 | 0.00 | 86 | 1009.5 |
| 20260503194903 | 59 | 135 | 1.0 | 2.0 | 0.00 | 2.16 | 0.00 | 87 | 1009.2 |
| 20260503193904 | 59 | 180 | 0.0 | 4.0 | 0.00 | 2.16 | 0.00 | 86 | 1008.9 |
| 20260503192904 | 60 | 315 | 1.0 | 3.0 | 0.00 | 2.16 | 0.00 | 86 | 1008.7 |
| 20260503191905 | 60 | 180 | 1.0 | 4.0 | 0.00 | 2.16 | 0.00 | 87 | 1008.4 |
| 20260503190906 | 60 | 293 | 2.0 | 4.0 | 0.00 | 2.16 | 0.00 | 87 | 1008.3 |
| 20260503185906 | 60 | 180 | 1.0 | 2.0 | 0.00 | 2.16 | 0.00 | 87 | 1008.6 |
| 20260503184907 | 60 | 225 | 0.0 | 4.0 | 0.00 | 2.16 | 0.00 | 88 | 1008.6 |
| 20260503183908 | 60 | 45 | 0.0 | 3.0 | 0.00 | 2.16 | 0.00 | 87 | 1008.6 |
| 20260503182908 | 60 | 180 | 2.0 | 4.0 | 0.00 | 2.16 | 0.00 | 86 | 1008.5 |
| 20260503181909 | 60 | 135 | 2.0 | 6.0 | 0.00 | 2.16 | 0.00 | 85 | 1008.6 |
| 20260503180910 | 59 | 203 | 1.0 | 5.0 | 0.00 | 2.16 | 0.00 | 85 | 1008.4 |
| 20260503175910 | 59 | 225 | 2.0 | 5.0 | 0.00 | 2.16 | 0.00 | 86 | 1008.3 |
| 20260503174911 | 60 | 180 | 2.0 | 5.0 | 0.00 | 2.16 | 0.00 | 85 | 1008.5 |
| 20260503173912 | 60 | 225 | 1.0 | 5.0 | 0.00 | 2.16 | 0.00 | 85 | 1008.7 |
| 20260503172912 | 60 | 180 | 2.0 | 4.0 | 0.00 | 2.16 | 0.00 | 85 | 1008.6 |
| 20260503171913 | 60 | 225 | 2.0 | 7.0 | 0.00 | 2.16 | 0.00 | 84 | 1008.6 |
| 20260503170913 | 60 | 225 | 2.0 | 5.0 | 0.00 | 2.16 | 0.00 | 84 | 1008.5 |
| 20260503150919 | 61 | 180 | 1.0 | 6.0 | 0.00 | 2.16 | 0.00 | 88 | 1008.3 |
| 20260503130925 | 62 | 180 | 2.0 | 6.0 | 0.00 | 2.16 | 0.00 | 88 | 1007.7 |